Voltar ao catálogo

COSMOS 831

AtivoNavegaçãoLEO
NORAD 8895·PAYLOAD·🇷🇺 Russia

Lançado Jun 15, 1976 de Plesetsk Cosmodrome

Loading…

Próximas Passagens (próximas 24 horas)

TLE

AtualizadoSource: Space-Track

Época: Sep 14, 2026, 06:38 UTC

1 08895U 76054G   26257.27680654 -.00000018  00000-0 -19037-4 0  9997
2 08895  73.9973  89.6670 0020753 359.4906 111.1163 12.43748967281375

Acompanhe COSMOS 831 em tempo real com AllMySat

Download on the App Store